Hourly Data Report for September 14, 2017

All times are specified in Local Standard Time (LST). Add 1 hour to adjust for Daylight Saving Time where and when it is observed.

COMOX A
BRITISH COLUMBIA

49°43'00.000" N
124°54'00.000" W
25.60 m
1021830
71893
YQQ

Download Data

Hourly Data (September 2017)
Hourly Data Report for September 14, 2017
Temp Definition
°C
Dew Point Temp Definition
°C
Rel Hum Definition
%
Wind Dir Definition
10's deg

Wind Spd Definition
km/h
Visibility Definition
km
Stn Press Definition
kPa
Hmdx Definition


Wind Chill Definition


Weather Definition


TIME
00:00 17.1 3.9 41 33 17 32.2 101.21     Clear
01:00 16.5 4.2 44 32 19 32.2 101.22     Clear
02:00 14.9 4.8 51 33 15 32.2 101.22     Clear
03:00 14.2 4.1 51 33 13 32.2 101.24     Clear
04:00 11.9 6.0 67 34 13 32.2 101.29     Clear
05:00 13.4 5.3 58 31 11 32.2 101.31     Clear
06:00 11.8 6.1 68 34 11 32.2 101.35     Clear
07:00 13.4 5.4 58 34 11 32.2 101.39     Clear
08:00 15.4 5.1 50 34 19 32.2 101.41     Clear
09:00 16.8 6.4 50 34 19 32.2 101.41     Clear
10:00 18.6 5.7 43 34 28 32.2 101.38     Clear
11:00 20.1 4.7 36 35 22 32.2 101.36     Clear
12:00 20.8 4.2 34 36 17 32.2 101.33     Clear
13:00 21.5 3.2 30 36 15 32.2 101.33     Clear
14:00 22.6 0.2 23 35 17 32.2 101.29     Clear
15:00 23.5 -2.0 18 34 17 32.2 101.24     Clear
16:00 23.4 -1.1 20 36 11 32.2 101.22     Clear
17:00 23.2 -0.7 20 35 11 32.2 101.22     Clear
18:00 21.6 -0.5 23 34 6 32.2 101.22     Clear
19:00 17.9 1.3 33 23 4 32.2 101.24     Clear
20:00 16.3 2.0 38 30 6 32.2 101.26     Clear
21:00 14.2 2.0 44 29 6 32.2 101.28     Clear
22:00 14.5 2.3 44 31 6 32.2 101.33     Clear
23:00 14.3 2.6 45 30 7 32.2 101.37     Clear

Notes on Data Quality.

Legend

  • E = Estimated
  • M = Missing
  • NA = Not Available
  • ‡ = Partner data that is not subject to review by the National Climate Archives
Date modified: